This demonstration page uses our WeatherBlox Daily Observations layout. Learn more.

Left ArrowRight Arrow

39.29038, -76.61219

Hourly Observations for October 20, 2016

Temp ( °F °C ) Dew Point ( °F °C ) Humidity (%) Winds ( mph kmh ) Pressure ( in mb ) Visibility ( mi km ) Precip ( " mm )
12:54 am 00:54 undefined 74 23.3 61 16.1 64 64 undefined N/A 30.08 1019 N/A 0.00 0.00
1:54 am 01:54 undefined 73 22.8 56 13.3 55 55 undefined N/A 30.08 1019 N/A 0.00 0.00
2:54 am 02:54 undefined 71 21.7 56 13.3 59 59 undefined N/A 30.07 1018 N/A 0.00 0.00
3:54 am 03:54 undefined 71 21.7 55 12.8 57 57 undefined N/A 30.07 1018 N/A 0.00 0.00
4:54 am 04:54 undefined 70 21.1 53 11.7 55 55 undefined N/A 30.07 1018 N/A 0.00 0.00
5:54 am 05:54 undefined 68 20 53 11.7 59 59 undefined N/A 30.06 1018 N/A 0.00 0.00
6:54 am 06:54 undefined 67 19.4 54 12.2 63 63 undefined N/A 30.08 1019 N/A 0.00 0.00
7:54 am 07:54 undefined 67 19.4 55 12.8 66 66 undefined N/A 30.08 1019 N/A 0.00 0.00
8:54 am 08:54 undefined 67 19.4 56 13.3 68 68 undefined N/A 30.09 1019 N/A 0.00 0.00
9:54 am 09:54 undefined 69 20.6 58 14.4 68 68 undefined N/A 30.08 1019 N/A 0.00 0.00
10:54 am 10:54 undefined 71 21.7 60 15.6 68 68 undefined N/A 30.07 1018 N/A 0.00 0.00
11:54 am 11:54 undefined 72 22.2 60 15.6 66 66 undefined N/A 30.05 1018 N/A 0.00 0.00
12:54 pm 12:54 undefined 75 23.9 62 16.7 64 64 undefined N/A 30.02 1017 N/A 0.00 0.00
1:54 pm 13:54 undefined 77 25 64 17.8 64 64 undefined N/A 29.99 1016 N/A 0.00 0.00
2:54 pm 14:54 undefined 77 25 65 18.3 66 66 undefined N/A 29.97 1015 N/A 0.00 0.00
3:54 pm 15:54 undefined 78 25.6 65 18.3 64 64 undefined N/A 29.96 1014 N/A 0.00 0.00
4:54 pm 16:54 undefined 78 25.6 65 18.3 64 64 undefined N/A 29.94 1014 N/A 0.00 0.00
5:54 pm 17:54 undefined 76 24.4 67 19.4 74 74 undefined N/A 29.93 1014 N/A 0.00 0.00
6:54 pm 18:54 undefined 76 24.4 66 18.9 72 72 undefined N/A 29.93 1013 N/A 0.00 0.00
7:54 pm 19:54 undefined 75 23.9 66 18.9 74 74 undefined N/A 29.93 1014 N/A 0.00 0.00
8:54 pm 20:54 undefined 74 23.3 63 17.2 69 69 undefined N/A 29.93 1013 N/A 0.00 0.00
9:54 pm 21:54 undefined 72 22.2 63 17.2 73 73 undefined N/A 29.91 1013 N/A 0.00 0.00
10:54 pm 22:54 undefined 71 21.7 65 18.3 81 81 undefined N/A 29.90 1013 N/A 0.00 0.00
11:54 pm 23:54 undefined 70 21.1 65 18.3 84 84 undefined N/A 29.89 1012 N/A 0.00 0.00

Powered by AerisWeather